TimeMST,TemperatureF,Dew PointF,Humidity,Sea Level PressureIn,VisibilityMPH,Wind Direction,Wind SpeedMPH,Gust SpeedMPH,PrecipitationIn,Events,Conditions,WindDirDegrees,DateUTC
12:12 AM,12.2,6.8,79,29.59,2.5,North,6.9,-,0.00,Snow,Light Snow,350,2013-01-29 07:12:00
12:27 AM,12.2,5.0,73,29.59,6.0,NW,5.8,-,0.00,Snow,Light Snow,320,2013-01-29 07:27:00
12:53 AM,10.0,3.0,73,29.54,10.0,NW,6.9,-,0.00,,Overcast,320,2013-01-29 07:53:00
1:02 AM,8.6,3.2,79,29.59,10.0,NNW,6.9,-,N/A,,Overcast,340,2013-01-29 08:02:00
1:53 AM,6.1,1.0,80,29.57,10.0,North,10.4,-,N/A,,Overcast,350,2013-01-29 08:53:00
2:53 AM,3.9,-0.9,80,29.57,10.0,North,6.9,-,N/A,,Overcast,350,2013-01-29 09:53:00
3:53 AM,1.9,-2.0,83,29.59,10.0,North,10.4,-,N/A,,Mostly Cloudy,360,2013-01-29 10:53:00
4:53 AM,3.0,-2.9,76,29.58,10.0,North,10.4,-,N/A,,Overcast,360,2013-01-29 11:53:00
5:53 AM,1.9,-4.0,76,29.62,10.0,North,12.7,-,N/A,,Overcast,360,2013-01-29 12:53:00
6:53 AM,-0.0,-7.1,72,29.65,10.0,North,10.4,-,N/A,,Scattered Clouds,350,2013-01-29 13:53:00
7:53 AM,-6.0,-9.9,83,29.70,10.0,North,8.1,-,N/A,,Clear,350,2013-01-29 14:53:00
8:53 AM,3.0,-7.1,63,29.65,10.0,North,11.5,17.3,N/A,,Clear,350,2013-01-29 15:53:00
9:53 AM,6.1,-9.0,50,29.62,10.0,North,10.4,-,N/A,,Clear,360,2013-01-29 16:53:00
10:20 AM,6.8,-7.6,52,29.58,10.0,North,19.6,26.5,N/A,,Mostly Cloudy,350,2013-01-29 17:20:00
10:36 AM,6.8,-7.6,52,29.58,10.0,North,13.8,20.7,N/A,,Overcast,350,2013-01-29 17:36:00
10:53 AM,7.0,-8.0,51,29.62,10.0,North,12.7,21.9,N/A,,Mostly Cloudy,350,2013-01-29 17:53:00
11:53 AM,9.0,-7.1,48,29.60,10.0,NNW,9.2,16.1,N/A,,Overcast,330,2013-01-29 18:53:00
12:53 PM,8.1,-7.1,50,29.61,10.0,North,13.8,26.5,N/A,,Overcast,350,2013-01-29 19:53:00
1:53 PM,8.1,-5.1,55,29.63,10.0,NW,18.4,24.2,N/A,,Overcast,310,2013-01-29 20:53:00
2:53 PM,7.0,-2.0,67,29.67,10.0,WNW,16.1,24.2,N/A,,Mostly Cloudy,290,2013-01-29 21:53:00
3:05 PM,6.8,-2.2,67,29.57,2.5,WNW,15.0,21.9,0.00,Snow,Light Snow,300,2013-01-29 22:05:00
3:19 PM,6.8,-2.2,67,29.58,6.0,WNW,15.0,20.7,0.00,Snow,Light Snow,300,2013-01-29 22:19:00
3:42 PM,6.8,-2.2,67,29.58,5.0,WNW,16.1,-,0.00,Snow,Light Snow,300,2013-01-29 22:42:00
3:53 PM,6.1,-2.0,69,29.74,2.0,NW,11.5,-,0.00,Snow,Light Snow,320,2013-01-29 22:53:00
4:12 PM,5.0,-0.4,78,29.60,0.5,NW,13.8,19.6,0.01,Snow,Snow,310,2013-01-29 23:12:00
4:38 PM,6.8,1.4,79,29.62,1.2,NNW,9.2,-,0.01,Snow,Light Snow,340,2013-01-29 23:38:00
4:49 PM,6.8,-0.4,72,29.62,3.0,NW,11.5,-,0.01,Snow,Light Snow,320,2013-01-29 23:49:00
4:53 PM,5.0,-0.0,80,29.78,1.5,NNW,8.1,17.3,0.01,Snow,Light Snow,340,2013-01-29 23:53:00
5:09 PM,5.0,-0.4,78,29.63,3.0,NW,10.4,-,0.01,Snow,Light Snow,310,2013-01-30 00:09:00
5:22 PM,3.2,-2.2,78,29.64,6.0,NW,8.1,17.3,0.01,Snow,Light Snow,320,2013-01-30 00:22:00
5:38 PM,3.2,-2.2,78,29.65,2.5,NW,10.4,-,0.01,Snow,Light Snow,310,2013-01-30 00:38:00
5:53 PM,3.9,-0.9,80,29.82,2.5,NNW,6.9,-,0.01,Snow,Light Snow,330,2013-01-30 00:53:00
6:01 PM,3.2,-0.4,85,29.65,3.0,NW,11.5,17.3,0.00,Snow,Light Snow,310,2013-01-30 01:01:00
6:17 PM,3.2,-2.2,78,29.66,8.0,NNW,10.4,-,0.00,,Overcast,330,2013-01-30 01:17:00
6:53 PM,3.0,-2.0,80,29.86,5.0,NW,11.5,-,0.00,Snow,Light Snow,320,2013-01-30 01:53:00
7:00 PM,3.2,-2.2,78,29.68,2.0,NNW,8.1,-,0.00,Snow,Light Snow,340,2013-01-30 02:00:00
7:07 PM,3.2,-0.4,85,29.69,1.2,North,10.4,-,0.00,Snow,Light Snow,350,2013-01-30 02:07:00
7:18 PM,3.2,-2.2,78,29.70,0.8,North,12.7,23.0,0.00,Snow,Light Snow,350,2013-01-30 02:18:00
7:34 PM,3.2,-0.4,85,29.70,0.5,North,11.5,17.3,0.01,Fog-Snow,Snow,350,2013-01-30 02:34:00
7:44 PM,3.2,-0.4,85,29.71,1.0,NNW,9.2,-,0.02,Snow,Light Snow,340,2013-01-30 02:44:00
7:47 PM,3.2,-2.2,78,29.71,2.0,NNW,10.4,-,0.02,Snow,Light Snow,340,2013-01-30 02:47:00
7:53 PM,3.0,-2.0,80,29.95,9.0,NNW,8.1,-,0.02,,Overcast,340,2013-01-30 02:53:00
8:53 PM,1.9,-5.1,72,29.90,10.0,North,10.4,-,N/A,,Overcast,350,2013-01-30 03:53:00
9:53 PM,1.0,-6.0,72,29.90,10.0,North,11.5,-,N/A,,Overcast,350,2013-01-30 04:53:00
10:53 PM,-2.9,-7.1,82,29.95,10.0,NNW,3.5,-,N/A,,Mostly Cloudy,340,2013-01-30 05:53:00
11:53 PM,-6.0,-9.9,83,29.95,10.0,NNE,6.9,-,N/A,,Overcast,30,2013-01-30 06:53:00